Résultats de la compétition "6 jours de l'Aveyron - Etape 2" du 04-08-2008 organisée par le comité départemental du 12 - Aveyron
     
  Télécharger le fichier CSV.  
     
     

 Circuit "G"

Licence Nom Prénom Temps CN
précédent
Score sur
la course
Différence
9348MARTINEZFrancois0:58:0248076066+1259
2321DENAIXMichel0:58:5354215978+557
9629SMIRNOVKonstantin0:59:5156955882+187
1335BEAUDEUXPhilippe1:01:0554785763+285
2936SANDEVOIRBenoit1:02:4655265608+82
14310RAOUXPierre1:04:5642545421+1167
2252GROSHENSDidier1:05:0659405407-533
484MERMINEric1:06:4448765275+399
6930GARROTPascal1:08:1049015164+263
1910MEYERJ-Marc1:08:5945675103+536
2409POGUPhilippe1:09:5155015040-461
8773GRATIENJacques1:09:5240185038+1020
681MATHEPatrick1:10:5440274965+938
7986DERIAZJ-Luc1:11:4156144911-703
5676BALLIOTYvan1:11:4458324907-925
2822DICKBURTMichel1:11:4545704906+336
3132GIRESylvain1:11:57N/A4893N/A
5603MANETP-Jean1:12:2144814865+384
8372ROCHERJ-Marc1:12:4048564844-12
10719MAHLERGeorges1:12:4947334834+101
10660GOUDARDOlivier1:13:2436374796+1159
7877VANDEWEEGHEVincent1:13:3644314783+352
3353BONNEAUPaul1:17:5238264521+695
60JAFFRYXavier1:18:2549594489-470
8081LEGEREPascal1:18:5644674460-7
3956LILLAZPascal1:20:2246004380-220
4470DUPRONPascal1:20:3348344370-464
407TREZEGUETGilles1:21:1345734334-239
3818BASSETOlivier1:21:1953014329-972
8240RAYMONDAUDJacques1:21:2840474321+274
3546GIBIATFrederic1:23:3744024210-192
3030SABATIERFrancois1:25:1540594129+70
9179ALESSANDRIPierre1:25:5250014100-901
1658SPANIERLuc1:26:2149674077-890
11472LACASSINRobin1:29:0146243954-670
11419RINGOTFrederic1:29:1242483946-302
7902PORTRONAlain1:29:1841823942-240
18620BANIKFrédéric1:29:5437193916+197
2379BILQUEZEric1:30:0343613909-452
14947JOUVEBernard1:31:2840713849-222
9460MONTEMONTPatrice1:36:1944683655-813
5119PICARDJ-Pierre1:36:3034933648+155
13088GRENOUILLATJ-Louis1:38:3533093571+262
9462BOUCHETJ-Michel1:38:39N/A3568N/A
5640HUEBERFrancois1:39:1646203546-1074
11088LE BORGNEPascal1:40:2830863504+418
3203DESBRESTPatrick1:41:1643713476-895
2691VARINGuy1:42:4925673424+857
2732PORTEJ-Luc1:44:1237073378-329
4124ORANOAlain1:47:0543543287-1067
15322AVIRONMichel1:47:4238163268-548
18199BERGOENDJ. Robert1:49:0434353228-207
1752GRANSARTRenaud1:50:3139163185-731
16174BREDOUXBruno1:52:0831513139-12
18078RADISSONBruno1:55:5829913035+44
8180L'HUILLIERPhilippe1:55:5827943035+241
10367SIAUDPhilippe1:58:0033032983-320
11332GUETINFrancois2:00:0236472933-714
8733COULIERFrancois2:01:3725252894+369
6534DEMAISONGuy2:02:4741772867-1310
19642LECONTEGilbert2:05:17N/A2810N/A
13398DELAGEJ-Gilles2:07:2629642762-202
16448VARELAPatrick2:23:1630582457-601
17202LAMINETTEFrancois2:38:2630732222-851
1100SCHIAVOGillesN/A33860-3386
10338ROGIERYannN/A22890-2289
10901RAVENELPhilippeN/A40870-4087
11343CORDEIRO MENDESPauloN/A28480-2848
3384EUDIERPatrickN/A50860-5086
11440DUPOIRIEUXGillesN/A51010-5101

  Indice de confiance du circuit (moyenne des différences entre CN et score sur la course des 3 à 10 premiers) : 125






 Retour